Weather reports worldwide

Advertisment
Chivenor, United Kingdom (3707): temperature & dewpoint: 17.04.2019 18:00:00 - 23.04.2019 18:00:00 (BST)Chivenor, United Kingdom (3707): temperature -20cm & temperature -100cm: 17.04.2019 18:00:00 - 23.04.2019 18:00:00 (BST)Chivenor, United Kingdom (3707): wind speed & gusts: 17.04.2019 18:00:00 - 23.04.2019 18:00:00 (BST)Chivenor, United Kingdom (3707): wind direction: 17.04.2019 18:00:00 - 23.04.2019 18:00:00 (BST)Chivenor, United Kingdom (3707): reduced air pressure: 17.04.2019 18:00:00 - 23.04.2019 18:00:00 (BST)Chivenor, United Kingdom (3707): visibility: 17.04.2019 18:00:00 - 23.04.2019 18:00:00 (BST)Chivenor, United Kingdom (3707): precipitation: 17.04.2019 18:00:00 - 23.04.2019 18:00:00 (BST)
Date & Time tt [°C] td [°C] tt -20cm [°C] tt -100cm [°C] ff [km/h] ff [kn] fx [km/h] fx [kn] dd ppp [hPa] vv [km] rr [mm]
23.04.2019 18:00:00 18,4 8,5 - - 24 13 - - SE 993,9 45 0,0
23.04.2019 17:00:00 19,0 9,5 - - 22 12 - - SE 994,0 20 0,0
23.04.2019 16:00:00 19,9 8,9 - - 22 12 - - SE 994,2 27 0,0
23.04.2019 15:00:00 20,6 8,6 - - 26 14 - - SE 994,5 30 0,0
23.04.2019 14:00:00 20,5 9,5 - - 18 10 - - SE 994,7 30 0,0
23.04.2019 13:00:00 19,8 9,9 - - 22 12 - - SE 995,0 35 0,0
23.04.2019 12:00:00 19,4 10,2 - - 22 12 - - ESE 995,2 18 0,0
23.04.2019 11:00:00 18,4 9,2 - - 22 12 - - SE 995,4 22 0,0
23.04.2019 10:00:00 17,7 9,3 13,5 12,0 22 12 - - SE 995,6 30 0,0
23.04.2019 09:00:00 15,9 9,0 - - 18 10 - - SE 995,7 28 0,0
23.04.2019 08:00:00 13,7 9,8 - - 16 9 - - ESE 995,9 30 0,0
23.04.2019 07:00:00 12,8 9,1 - - 8 4 - - E 996,3 19 0,0
23.04.2019 06:00:00 12,6 9,0 - - 8 4 - - E 996,3 14 0,0
23.04.2019 05:00:00 12,6 9,1 - - 9 5 - - E 997,1 15 0,0
23.04.2019 04:00:00 12,9 9,5 - - 4 2 - - ESE 997,4 12 0,0
23.04.2019 03:00:00 13,1 8,9 - - 0 0 - - N 997,9 14 0,0
23.04.2019 02:00:00 13,3 9,1 - - 0 0 - - N 998,4 11 0,0
23.04.2019 01:00:00 13,8 9,2 - - 0 0 - - N 999,3 13 0,0
23.04.2019 00:00:00 13,6 9,6 - - 0 0 - - N 999,5 11 0,0
22.04.2019 23:00:00 14,5 8,9 - - 0 0 - - N 999,8 15 0,0
22.04.2019 22:00:00 14,2 9,6 - - 0 0 - - N 1000,2 12 0,0
22.04.2019 21:00:00 15,1 9,7 - - 0 0 - - N 1000,4 14 0,0
22.04.2019 20:00:00 16,0 10,2 - - 0 0 - - N 1000,5 12 0,0
22.04.2019 19:00:00 18,1 7,9 - - 9 5 - - S 1000,4 45 0,0
22.04.2019 18:00:00 18,8 11,2 - - 15 8 - - SE 1000,3 18 0,0
22.04.2019 17:00:00 19,6 10,4 - - 26 14 - - SE 1000,4 18 0,0
22.04.2019 16:00:00 19,9 10,7 - - 28 15 46 25 SE 1000,8 21 0,0
22.04.2019 15:00:00 21,6 9,1 - - 37 20 46 25 SE 1001,1 14 0,0
22.04.2019 14:00:00 21,1 10,1 - - 29 16 - - SE 1001,7 13 0,0
22.04.2019 13:00:00 19,4 10,2 - - 26 14 - - SE 1002,3 22 0,0
22.04.2019 12:00:00 18,1 8,7 - - 28 15 - - ESE 1003,0 16 0,0
22.04.2019 11:00:00 16,2 7,5 - - 26 14 - - ESE 1003,8 13 0,0
22.04.2019 10:00:00 15,9 7,8 13,2 11,7 26 14 - - ESE 1004,6 13 0,0
22.04.2019 09:00:00 13,5 5,6 - - 21 11 - - E 1005,1 23 0,0
22.04.2019 08:00:00 11,6 5,1 - - 18 10 - - E 1005,7 14 0,0
22.04.2019 07:00:00 9,4 4,3 - - 21 11 - - E 1006,3 14 0,0
22.04.2019 06:00:00 9,7 3,9 - - 18 10 - - E 1006,7 16 0,0
22.04.2019 05:00:00 9,1 4,1 - - 18 10 - - E 1007,7 15 0,0
22.04.2019 04:00:00 8,6 4,5 - - 16 9 - - E 1008,6 13 0,0
22.04.2019 03:00:00 7,4 4,1 - - 9 5 - - E 1009,6 18 0,0
22.04.2019 02:00:00 8,9 5,2 - - 8 4 - - ENE 1010,7 20 0,0
22.04.2019 01:00:00 9,9 5,6 - - 15 8 - - E 1011,6 17 0,0
22.04.2019 00:00:00 9,8 6,1 - - 13 7 - - E 1012,3 17 0,0
21.04.2019 23:00:00 10,9 6,5 - - 8 4 - - E 1012,8 17 0,0
21.04.2019 22:00:00 12,4 6,5 - - 9 5 - - E 1013,5 20 0,0
21.04.2019 21:00:00 13,9 7,2 - - 4 2 - - WNW 1014,1 20 0,0
21.04.2019 20:00:00 15,0 8,5 - - 11 6 - - WSW 1014,6 16 0,0
21.04.2019 19:00:00 17,6 7,8 - - 13 7 - - WNW 1015,1 19 0,0
21.04.2019 18:00:00 21,2 6,6 - - 11 6 - - NNW 1015,6 24 0,0
21.04.2019 17:00:00 21,9 5,8 - - 15 8 - - NNW 1016,3 26 0,0
21.04.2019 16:00:00 20,8 6,8 - - 21 11 - - WNW 1017,0 18 0,0
21.04.2019 15:00:00 22,4 5,6 - - 11 6 - - NW 1017,8 40 0,0
21.04.2019 14:00:00 21,7 7,2 - - 9 5 - - W 1018,6 45 0,0
21.04.2019 13:00:00 21,8 5,7 - - 8 4 - - W 1019,4 15 0,0
21.04.2019 12:00:00 21,1 8,5 - - 5 3 - - W 1020,1 29 0,0
21.04.2019 11:00:00 19,7 10,4 - - 5 3 - - ESE 1021,0 23 0,0
21.04.2019 10:00:00 16,6 9,1 12,7 11,5 8 4 - - ENE 1021,7 15 0,0
21.04.2019 09:00:00 12,4 7,1 - - 9 5 - - E 1022,3 22 0,0
21.04.2019 08:00:00 9,5 5,8 - - 9 5 - - E 1022,8 21 0,0
21.04.2019 07:00:00 7,8 5,3 - - 15 8 - - E 1023,0 16 0,0
21.04.2019 06:00:00 7,5 5,2 - - 16 9 - - E 1023,3 15 0,0
21.04.2019 05:00:00 7,5 5,3 - - 15 8 - - E 1023,7 17 0,0
21.04.2019 04:00:00 7,4 5,2 - - 13 7 - - E 1024,6 15 0,0
21.04.2019 03:00:00 8,2 5,6 - - 8 4 - - E 1025,5 17 0,0
21.04.2019 02:00:00 8,7 6,2 - - 11 6 - - E 1026,0 17 0,0
21.04.2019 01:00:00 9,4 7,1 - - 11 6 - - E 1026,5 19 0,0
21.04.2019 00:00:00 10,1 7,3 - - 5 3 - - E 1027,0 30 0,0
20.04.2019 23:00:00 10,2 7,2 - - 4 2 - - SE 1027,5 20 0,0
20.04.2019 22:00:00 11,2 6,6 - - 5 3 - - SE 1027,6 35 0,0
20.04.2019 21:00:00 12,7 8,1 - - 4 2 - - W 1027,7 40 0,0
20.04.2019 20:00:00 13,0 8,2 - - 13 7 - - W 1027,5 30 0,0
20.04.2019 19:00:00 15,8 9,0 - - 18 10 - - WSW 1027,6 29 0,0
20.04.2019 18:00:00 20,8 8,6 - - 15 8 - - WSW 1027,7 35 0,0
20.04.2019 17:00:00 23,6 1,2 - - 9 5 - - E 1028,0 15 0,0
20.04.2019 16:00:00 23,2 1,6 - - 11 6 - - ESE 1028,6 35 0,0
20.04.2019 15:00:00 23,7 1,8 - - 11 6 - - E 1029,1 50 0,0
20.04.2019 14:00:00 21,5 11,2 - - 11 6 - - WSW 1029,6 20 0,0
20.04.2019 13:00:00 21,8 9,0 - - 8 4 - - WSW 1030,0 21 0,0
20.04.2019 12:00:00 21,3 9,1 - - 9 5 - - W 1030,5 40 0,0
20.04.2019 11:00:00 20,7 9,6 - - 8 4 - - W 1030,8 17 0,0
20.04.2019 10:00:00 17,6 9,0 12,4 11,2 5 3 - - E 1030,9 16 0,0
20.04.2019 09:00:00 14,7 7,5 - - 8 4 - - ENE 1031,2 35 0,0
20.04.2019 08:00:00 12,3 7,8 - - 9 5 - - E 1031,5 18 0,0
20.04.2019 07:00:00 10,8 7,7 - - 15 8 - - E 1031,2 21 0,0
20.04.2019 06:00:00 11,1 8,0 - - 15 8 - - E 1030,7 14 0,0
20.04.2019 05:00:00 12,3 8,5 - - 13 7 - - E 1030,6 14 0,0
20.04.2019 04:00:00 12,0 9,1 - - 9 5 - - E 1030,6 16 0,0
20.04.2019 03:00:00 12,5 9,0 - - 5 3 - - E 1030,7 14 0,0
20.04.2019 02:00:00 12,6 8,8 - - 9 5 - - E 1030,7 15 0,0
20.04.2019 01:00:00 14,0 8,7 - - 9 5 - - E 1030,7 20 0,0
20.04.2019 00:00:00 12,7 8,7 - - 8 4 - - E 1030,9 17 0,0
19.04.2019 23:00:00 12,5 8,6 - - 8 4 - - E 1030,6 18 0,0
19.04.2019 22:00:00 13,5 8,5 - - 8 4 - - E 1030,4 24 0,0
19.04.2019 21:00:00 15,2 9,9 - - 5 3 - - E 1029,7 23 0,0
19.04.2019 20:00:00 15,8 9,6 - - 4 2 - - NW 1029,5 21 0,0
19.04.2019 19:00:00 16,0 9,7 - - 9 5 - - WSW 1029,0 13 0,0
19.04.2019 18:00:00 20,2 10,3 - - 9 5 - - WSW 1028,3 24 0,0
19.04.2019 17:00:00 22,8 5,5 - - 8 4 - - ESE 1027,8 30 0,0
19.04.2019 16:00:00 22,9 5,6 - - 15 8 - - ESE 1027,9 50 0,0
19.04.2019 15:00:00 22,4 5,1 - - 16 9 - - E 1028,0 25 0,0
19.04.2019 14:00:00 22,4 4,6 - - 21 11 - - ESE 1028,2 30 0,0
19.04.2019 13:00:00 22,0 6,7 - - 18 10 - - ESE 1028,1 30 0,0
19.04.2019 12:00:00 21,1 6,5 - - 11 6 - - SE 1027,8 45 0,0
19.04.2019 11:00:00 19,2 9,1 - - 4 2 - - SE 1027,8 19 0,0
19.04.2019 10:00:00 15,9 9,1 11,2 10,9 5 3 - - ENE 1027,5 16 0,0
19.04.2019 09:00:00 13,1 6,8 - - 5 3 - - ENE 1027,3 17 0,0
19.04.2019 08:00:00 9,7 6,9 - - 9 5 - - E 1026,7 11 0,0
19.04.2019 07:00:00 7,5 5,9 - - 9 5 - - E 1026,4 7 0,0
19.04.2019 06:00:00 7,9 6,0 - - 9 5 - - E 1026,0 8 0,0
19.04.2019 05:00:00 8,1 5,9 - - 9 5 - - E 1025,7 8 0,0
19.04.2019 04:00:00 8,5 5,6 - - 8 4 - - E 1025,3 8 0,0
19.04.2019 03:00:00 10,9 7,3 - - 5 3 - - E 1025,0 11 0,0
19.04.2019 02:00:00 11,2 8,4 - - 5 3 - - E 1024,9 12 0,0
19.04.2019 01:00:00 10,8 8,0 - - 5 3 - - E 1024,6 9 0,0
19.04.2019 00:00:00 13,4 8,8 - - 8 4 - - ENE 1024,4 12 0,0
18.04.2019 23:00:00 13,6 8,8 - - 8 4 - - SE 1023,8 13 0,0
18.04.2019 22:00:00 13,4 9,0 - - 5 3 - - SE 1023,3 11 0,0
18.04.2019 21:00:00 15,2 9,0 - - 13 7 - - ESE 1023,0 12 0,0
18.04.2019 20:00:00 17,5 10,0 - - 15 8 - - ENE 1022,6 14 0,0
18.04.2019 19:00:00 18,8 10,1 - - 16 9 - - E 1022,0 29 0,0
18.04.2019 18:00:00 19,1 10,4 - - 18 10 - - ESE 1021,7 30 0,0
18.04.2019 17:00:00 20,0 10,7 - - 21 11 - - E 1021,1 20 0,0
18.04.2019 16:00:00 19,9 10,5 - - 22 12 - - SE 1020,8 15 0,0
18.04.2019 15:00:00 19,8 10,9 - - 26 14 46 25 ESE 1020,7 30 0,0
18.04.2019 14:00:00 18,8 10,2 - - 29 16 46 25 ESE 1020,5 17 0,0
18.04.2019 13:00:00 18,2 9,6 - - 34 18 48 26 E 1020,4 14 0,0
18.04.2019 12:00:00 17,3 9,0 - - 39 21 50 27 ESE 1020,8 13 0,0
18.04.2019 11:00:00 15,5 8,6 - - 29 16 - - ESE 1020,5 14 0,0
18.04.2019 10:00:00 14,2 8,2 10,9 10,7 26 14 - - E 1020,4 11 0,0
18.04.2019 09:00:00 12,8 8,4 - - 18 10 - - E 1020,2 10 0,0
18.04.2019 08:00:00 9,1 7,2 - - 2 1 - - SE 1020,0 8 0,0
18.04.2019 07:00:00 8,0 6,1 - - 2 1 - - NNW 1019,5 9 0,0
18.04.2019 06:00:00 7,9 5,2 - - 4 2 - - ESE 1018,9 11 0,0
18.04.2019 05:00:00 9,2 6,6 - - 5 3 - - SSE 1019,0 8 0,0
18.04.2019 04:00:00 9,6 6,8 - - 13 7 - - SE 1019,3 10 0,0
18.04.2019 03:00:00 10,1 6,8 - - 11 6 - - E 1019,4 9 0,0
18.04.2019 02:00:00 10,4 6,8 - - 18 10 - - ESE 1019,3 6 0,0
18.04.2019 01:00:00 11,0 7,4 - - 21 11 - - ESE 1019,3 5 0,0
18.04.2019 00:00:00 10,3 7,6 - - 9 5 - - ESE 1018,9 3,5 0,0
17.04.2019 23:00:00 10,4 7,5 - - 8 4 - - SSE 1018,8 3,5 0,0
17.04.2019 22:00:00 11,8 8,3 - - 9 5 - - E 1018,4 5 0,0
17.04.2019 21:00:00 11,7 7,7 - - 13 7 - - E 1018,3 5 0,0
17.04.2019 20:00:00 13,2 7,7 - - 22 12 - - ESE 1017,7 6 0,0
17.04.2019 19:00:00 14,6 7,6 - - 18 10 - - SE 1017,5 9 0,0
17.04.2019 18:00:00 15,9 8,6 - - 22 12 - - E 1017,0 9 0,0

tt = temperature
td = dewpoint
tt -20cm = temperature -20cm
tt -100cm = temperature -100cm
ff = wind speed
fx = gusts
dd = wind direction
ppp = reduced air pressure
vv = visibility
rr = precipitation

Next stations